RH
42 42 44 46 41 36 37 31 31 31 31 32 34 34 29 25 26 26 25 26 28 27 29 28 35 39 46 47 48 47 47 44 47
39 40 41 43 45 41 44 38 33 33 34 34 35 35 36 32 28 27 28 26 25 29 29 31 35 41 44 47 47 45 46 44 45
33 35 38 40 42 40 39 35 33 36 37 34 34 35 36 33 30 29 26 30 27 31 29 32 34 40 44 49 49 45 44 47 44
29 31 32 36 39 39 36 39 36 34 35 36 36 36 37 38 31 27 27 29 28 28 29 32 37 40 43 46 49 46 48 50 53
24 26 28 32 39 42 39 39 37 32 34 38 37 36 36 37 36 28 26 26 29 25 27 31 36 41 42 45 48 49 50 50 54
21 26 29 33 42 43 42 40 38 35 34 34 36 37 35 34 36 31 24 23 28 24 26 32 35 39 41 43 47 49 49 51 55
24 25 30 33 38 46 43 40 40 35 34 34 34 37 35 32 33 33 25 21 27 25 26 31 33 38 41 44 50 51 52 55 58
22 25 25 31 36 42 42 41 44 42 38 38 37 36 35 32 34 35 30 22 24 25 27 30 34 37 40 43 47 49 51 53 55
17 19 22 25 30 34 38 39 38 40 42 40 40 39 34 34 35 35 32 25 21 25 27 28 30 33 37 38 41 43 45 51 55
15 17 20 25 29 34 38 32 32 36 36 38 40 37 35 35 35 35 31 31 23 22 25 28 29 31 34 34 37 39 44 54 62
14 19 18 21 27 31 34 32 30 31 35 36 39 37 37 39 36 33 32 31 28 24 25 26 27 30 33 36 37 41 50 61 67
10 13 19 19 22 29 30 30 30 30 35 35 35 37 38 36 35 35 34 31 31 29 29 29 28 30 36 38 42 52 62 66 71
11 10 15 21 21 24 27 30 31 30 32 35 36 37 37 35 34 37 37 36 35 35 31 32 33 36 39 43 55 64 65 66 73
15 13 13 18 20 21 28 33 37 37 35 34 36 38 33 37 38 35 36 41 42 37 35 35 38 41 44 54 62 59 50 52 65
19 18 15 13 17 19 23 30 33 37 37 38 42 43 39 41 42 39 37 39 44 47 46 41 40 48 55 59 59 55 57 51 64
23 23 21 20 18 17 20 22 29 31 30 25 32 39 43 41 41 42 43 42 47 51 54 51 50 51 57 58 60 63 66 56 59
33 29 27 26 25 24 23 23 23 23 25 29 34 37 35 36 40 43 35 42 59 48 57 62 59 64 65 66 63 64 63 53 59
39 37 37 36 35 34 31 32 31 31 28 27 27 30 36 36 39 42 50 56 58 55 65 72 72 77 83 77 65 52 55 54 53
40 37 34 35 37 38 38 36 38 38 37 37 34 33 32 37 43 47 51 50 56 73 76 79 90 93 95 83 74 55 57 55 60
43 42 40 41 40 37 36 35 34 36 37 39 42 45 50 46 54 56 66 74 72 64 89 96 91 67 64 64 56 55 59 62 58